Terminal Aerodrome Forecast
Issued by NWS State College, PA

Home | Current Version | Previous Version | Text Only | Print | Product List | Glossary On
Versions: 1 2 3 4 5 6 7 8 9 10 11 12 13 14 15 16 17 18 19 20 21 22 23 24 25 26 27 28 29 30 31 32 33 34 35 36 37 38 39 40 41 42 43 44 45 46 47 48 49 50
000
FTUS41 KCTP 201751
TAFMDT
TAF
KMDT 201751Z 2018/2118 14005KT 3SM -RA BR OVC009
     FM201900 17003KT 5SM -DZ SCT007 OVC015
     FM202000 VRB03KT 3SM BR OVC020
     FM202300 VRB03KT 2SM BR BKN009 OVC015
     FM210400 00000KT 1/2SM FG OVC020
     FM211300 25004KT 1SM BR OVC015=

USA.gov is the U.S. government's official web portal to all federal, state and local government web resources and services.